This demonstration page uses our WeatherBlox Daily Observations layout. Learn more.

Left ArrowRight Arrow

Hourly Observations for April 24, 2015

Temp ( °F °C ) Dew Point ( °F °C ) Humidity (%) Winds ( mph kmh ) Pressure ( in mb ) Visibility ( mi km ) Precip ( " mm )
12:53 am 00:53 Partly Cloudy 54 12.2 43 6.1 67 67 S 10 17 29.81 1010 10 16 0.00 0.00
1:53 am 01:53 Cloudy 53 11.7 43 6.1 69 69 S 10 17 29.78 1009 10 16 0.00 0.00
2:53 am 02:53 Clear 52 11.1 43 6.1 72 72 S 9 15 29.75 1008 10 16 0.00 0.00
3:20 am 03:20 Mostly Cloudy 52 11 43 6 72 72 S 7 11 29.77 1008 10 16 0.00 0.00
3:44 am 03:44 Partly Cloudy 52 11 45 7 77 77 S 12 19 29.74 1007 10 16 0.00 0.00
3:53 am 03:53 Clear 51 10.6 44 6.7 77 77 S 13 20 29.73 1007 10 16 0.00 0.03
4:53 am 04:53 Mostly Clear 51 10.6 45 7.2 80 80 SE 14 22 29.65 1004 10 16 0.00 0.00
5:45 am 05:45 Mostly Cloudy 51 10.6 46 7.8 83 83 S 12 19 29.71 1006 10 16 0.00 0.00
5:53 am 05:53 Mostly Cloudy 51 10.6 47 8.3 86 86 S 13 20 29.68 1005 10 16 0.00 0.00
6:53 am 06:53 Cloudy 52 11.1 49 9.4 89 89 S 10 17 29.70 1006 9 14 0.00 0.00
7:53 am 07:53 Cloudy with Mist and Fog 53 11.7 50 10 89 89 S 7 11 29.71 1006 6 10 0.00 0.00
8:48 am 08:48 Cloudy with Mist and Fog 54 12 52 11 94 94 S 7 11 29.68 1005 3 5 0.00 0.00
8:53 am 08:53 Cloudy with Mist and Fog 53 11.7 51 10.6 93 93 S 7 11 29.71 1006 3 4 0.00 0.00
9:14 am 09:14 Cloudy with Mist and Fog 54 12 52 11 94 94 S 7 11 29.68 1005 2 2 0.00 0.00
9:36 am 09:36 Cloudy with Mist and Fog 53 11.7 52 11.1 96 96 S 6 9 29.68 1005 1 1 0.00 0.00
9:53 am 09:53 Cloudy with Mist and Fog 54 12.2 53 11.7 97 97 S 9 15 29.69 1005 1 2 0.00 0.00
10:53 am 10:53 Cloudy with Mist and Fog 56 13.3 54 12.2 93 93 S 8 13 29.68 1005 3 4 0.00 0.00
11:01 am 11:01 Cloudy with Mist and Fog 56 13.3 54 12.2 93 93 S 8 13 29.68 1005 4 6 0.00 0.00
11:53 am 11:53 Cloudy 58 14.4 54 12.2 87 87 S 7 11 29.66 1004 7 11 0.00 0.00
12:03 pm 12:03 Cloudy 57 14 55 13 94 94 SSE 7 11 29.68 1005 8 13 0.00 0.00
12:53 pm 12:53 Cloudy 60 15.6 55 12.8 84 84 S 9 15 29.64 1004 10 16 0.00 0.00
1:01 pm 13:01 Cloudy 60 15.6 55 12.8 84 84 S 6 9 29.62 1003 10 16 0.00 0.00
1:53 pm 13:53 Cloudy 63 17.2 56 13.3 78 78 S 8 13 29.60 1002 10 16 0.00 0.00
2:03 pm 14:03 Cloudy 63 17 55 13 77 77 S 9 15 29.59 1002 10 16 0.00 0.00
2:39 pm 14:39 Cloudy 63 17.2 56 13.3 78 78 SE 9 15 29.56 1001 10 16 0.00 0.00
2:53 pm 14:53 Cloudy 62 16.7 56 13.3 80 80 SE 10 17 29.57 1001 10 16 0.00 0.00
3:01 pm 15:01 Cloudy 61 16.1 56 13.3 84 84 SSE 10 17 29.56 1001 10 16 0.00 0.00
3:12 pm 15:12 Cloudy 61 16 55 13 83 83 SSE 7 11 29.56 1001 9 14 0.00 0.00
3:53 pm 15:53 Cloudy 60 15.6 56 13.3 86 86 SSE 8 13 29.57 1001 9 14 0.00 0.00
4:21 pm 16:21 Cloudy 60 15.6 56 13.3 86 86 SSE 10 17 29.56 1001 8 13 0.00 0.00
4:43 pm 16:43 Cloudy 61 16.1 56 13.3 84 84 SE 9 15 29.53 1000 8 13 0.00 0.00
4:53 pm 16:53 Cloudy 61 16.1 56 13.3 84 84 SE 9 15 29.55 1001 9 14 0.00 0.00
5:53 pm 17:53 Cloudy 61 16.1 56 13.3 84 84 ESE 8 13 29.53 1000 10 16 0.00 0.00
6:53 pm 18:53 Cloudy 60 15.6 56 13.3 86 86 ESE 13 20 29.52 1000 10 16 0.00 0.00
7:09 pm 19:09 Cloudy 60 15.6 56 13.3 86 86 SE 12 19 29.50 999 10 16 0.00 0.00
7:27 pm 19:27 Cloudy 61 16 55 13 83 83 SE 9 15 29.50 999 10 16 0.00 0.00
7:38 pm 19:38 Cloudy 59 15 55 13 88 88 SE 13 20 29.50 999 10 16 0.00 0.00
7:53 pm 19:53 Cloudy 59 15 56 13.3 90 90 ESE 10 17 29.49 999 7 11 0.00 0.00
8:53 pm 20:53 Cloudy 58 14.4 55 12.8 90 90 E 9 15 29.47 998 7 11 0.00 0.00
9:53 pm 21:53 Cloudy 57 13.9 54 12.2 90 90 ESE 9 15 29.52 1000 7 11 0.00 0.00
10:53 pm 22:53 Cloudy with Mist and Fog 57 13.9 54 12.2 90 90 NE 6 9 29.50 999 4 6 0.00 0.00
11:07 pm 23:07 Cloudy with Mist and Fog 56 13.3 55 12.8 97 97 N 6 9 29.50 999 2 3 0.00 0.00
11:22 pm 23:22 Cloudy with Mist and Fog 55 13 55 13 100 100 N 3 6 29.50 999 3 5 0.00 0.00
11:36 pm 23:36 Cloudy with Nearby Thunderstorms 56 13.3 55 12.8 97 97 NNW 6 9 29.50 999 3 5 0.00 0.00
11:53 pm 23:53 Cloudy with Nearby Thunderstorms 56 13.3 55 12.8 97 97 NNW 6 9 29.48 998 3 5 0.00 0.00

Powered by AerisWeather